Regional Weather Roundup
Issued by NWS

Home | Current Version | Previous Version | Text Only | Print | Product List | Glossary On
Versions: 1 2 3 4 5 6 7 8 9 10 11 12 13 14 15 16 17 18 19 20 21 22 23 24 25 26 27 28 29 30 31 32 33 34 35 36 37 38 39 40 41 42 43 44 45 46 47 48 49 50
000
ASUS43 KOAX 012210
RWRNE

WEATHER ROUNDUP FOR NEBRASKA
NATIONAL WEATHER SERVICE OMAHA NE
500 PM CDT TUE SEP 01 2015

NOTES: SATELLITE DATA IS BEING USED TO AUGMENT CLOUD COVER ABOVE
       12000 FEET.
       "FAIR" INDICATES FEW OR NO CLOUDS BELOW 12,000 FEET WITH NO
       SIGNIFICANT WEATHER AND/OR OBSTRUCTIONS TO VISIBILITY.

  * THESE STATIONS DO NOT REPORT WEATHER SUCH AS RAIN...SNOW OR FOG.

NEZ001>004-019>022-054>056-012300-
NEBRASKA PANHANDLE

CITY           SKY/WX    TMP DP  RH WIND       PRES   REMARKS
SCOTTSBLUFF    SUNNY     94  41  16 VRB5      29.91F HX  90
ALLIANCE       SUNNY     94  37  13 SW10G23   29.90F
CHADRON        SUNNY     97  38  13 W7G17     29.83F HX  92
KIMBALL        SUNNY     89  36  15 S5        29.97F
SIDNEY         SUNNY     93  35  13 VRB3      29.96F
$$

NEZ057>060-069>072-079>082-012300-
SOUTHWEST NEBRASKA

CITY           SKY/WX    TMP DP  RH WIND       PRES   REMARKS
NORTH PLATTE   SUNNY     91  56  30 SW6       29.88F
IMPERIAL       SUNNY     93  47  20 SW7       29.92F
LEXINGTON      MOSUNNY   90  65  43 SE13      29.89F HX  91
MCCOOK         MOSUNNY   94  57  28 E7        29.89F HX  92
OGALLALA       SUNNY     93  43  18 CALM      29.90F
$$

NEZ005>010-023>029-035>040-094-012300-
NORTH CENTRAL NEBRASKA

CITY           SKY/WX    TMP DP  RH WIND       PRES   REMARKS
VALENTINE      SUNNY     93  55  27 S14       29.83F HX  91
AINSWORTH      SUNNY     89  60  36 SE12      29.87F
BROKEN BOW     MOSUNNY   90  63  40 SW5       29.88F HX  91
O`NEILL        PTSUNNY   86  69  55 S9        29.86F HX  90
ORD            PTSUNNY   90  64  42 S10G22    29.85F HX  91
THEDFORD       SUNNY     92  58  31 S12G18    29.89F HX  91
$$

NEZ041-046>049-061>064-073>077-083>087-012300-
SOUTH CENTRAL NEBRASKA

CITY           SKY/WX    TMP DP  RH WIND       PRES   REMARKS
GRAND ISLAND   MOSUNNY   91  62  37 SW16      29.88F HX  91
AURORA         MOSUNNY   91  64  40 S14G20    29.87F HX  92
HASTINGS       MOSUNNY   90  63  40 S10       29.88F HX  91
HEBRON         MOSUNNY   90  58  33 S17G25    29.88F
HOLDREGE       PTSUNNY   88  58  36 S7        29.90F
KEARNEY *      MOSUNNY   88  64  45 S9        29.89F
YORK           MOSUNNY   90  68  48 S14G20    29.88F HX  93
$$

NEZ011>018-030>034-042>045-012300-
NORTHEAST NEBRASKA

CITY           SKY/WX    TMP DP  RH WIND       PRES   REMARKS
NORFOLK        MOSUNNY   88  69  53 S14       29.86F HX  92
ALBION         MOSUNNY   85  68  56 S9        29.87F
BLAIR          PTSUNNY   85  69  59 S10       29.91F
COLUMBUS *     MOSUNNY   90  68  48 S9        29.86F HX  93
FREMONT        MOSUNNY   88  69  54 SE10      29.89F HX  92
TEKAMAH        MOSUNNY   87  74  64 S13       29.88F HX  95
WAYNE          PTSUNNY   85  73  67 S9        29.87F HX  92
$$

NEZ050>053-065>068-078-088>093-012300-
SOUTHEAST NEBRASKA

CITY           SKY/WX    TMP DP  RH WIND       PRES   REMARKS
LINCOLN        PTSUNNY   91  66  43 S22       29.89F HX  93
OMAHA EPPLEY   PTSUNNY   89  71  55 S14       29.90F HX  95
BEATRICE       PTSUNNY   88  67  49 S13       29.90F HX  90
FALLS CITY     SUNNY     90  65  43 S16G25    29.93F HX  92
NEBRASKA CITY  MOSUNNY   88  61  40 S13G18    29.92F
PLATTSMOUTH    PTSUNNY   88  70  55 SE8       29.91F HX  92
$$

NEZ044-045-051>053-067-012300-
OMAHA AREA

CITY           SKY/WX    TMP DP  RH WIND       PRES   REMARKS
OMAHA EPPLEY   PTSUNNY   89  71  55 S14       29.90F HX  95
BLAIR          PTSUNNY   85  69  59 S10       29.91F
FREMONT        MOSUNNY   88  69  54 SE10      29.89F HX  92
MILLARD        PTSUNNY   89  73  59 S13       29.90F HX  97
OFFUTT AFB     PTSUNNY   88  73  61 SE9       29.90F HX  95
PLATTSMOUTH    PTSUNNY   88  70  55 SE8       29.91F HX  92
WAHOO          FAIR      86  71  59 SE13      29.89F HX  92
$$



USA.gov is the U.S. government's official web portal to all federal, state and local government web resources and services.